contact:dominique.lefevre@mio.osupytheas.fr, maurice.libes@osupytheas.fr, didier.mallarino@osupytheas.fr
Project:EMSO http://www.emso-fr.org/EMSO-France
Depth: 2436.0 m
Title:EMSO Ligure Ouest : Data MII capteur MICROCAT
DateTime_Computer,Latitude,Longitude,Temperature,Conductivity,Pressure,DateTime_Instrument
DateTime_Computer,Latitude,Longitude,degC,S m-1,dbar,DateTime_Instrument
2020-06-22T00:02:21Z,42.805,6.029,13.2980,4.59977,2470.1,2020-6-22T02:03:06Z
2020-06-22T00:05:24Z,42.805,6.029,13.2974,4.59978,2470.087,2020-6-22T02:06:09Z
2020-06-22T00:08:27Z,42.805,6.029,13.2978,4.59979,2470.1,2020-6-22T02:09:12Z
2020-06-22T00:11:30Z,42.805,6.029,13.2976,4.59978,2470.087,2020-6-22T02:12:15Z
2020-06-22T00:14:34Z,42.805,6.029,13.2976,4.59976,2470.063,2020-6-22T02:15:18Z
2020-06-22T00:17:37Z,42.805,6.029,13.2978,4.59978,2470.1,2020-6-22T02:18:22Z
2020-06-22T00:20:40Z,42.805,6.029,13.2976,4.59978,2470.1,2020-6-22T02:21:25Z
2020-06-22T00:23:43Z,42.805,6.029,13.2978,4.59976,2470.124,2020-6-22T02:24:28Z
2020-06-22T00:26:46Z,42.805,6.029,13.2974,4.59979,2470.073,2020-6-22T02:27:31Z
2020-06-22T00:29:50Z,42.805,6.029,13.2977,4.59978,2470.063,2020-6-22T02:30:35Z
2020-06-22T00:32:53Z,42.805,6.029,13.2976,4.59979,2470.077,2020-6-22T02:33:38Z
2020-06-22T00:35:56Z,42.805,6.029,13.2976,4.59978,2470.11,2020-6-22T02:36:41Z
2020-06-22T00:38:59Z,42.805,6.029,13.2978,4.59978,2470.063,2020-6-22T02:39:44Z
2020-06-22T00:42:03Z,42.805,6.029,13.2978,4.59978,2470.073,2020-6-22T02:42:48Z
2020-06-22T00:45:06Z,42.805,6.029,13.2978,4.59978,2470.04,2020-6-22T02:45:51Z
2020-06-22T00:48:09Z,42.805,6.029,13.2980,4.59978,2470.04,2020-6-22T02:48:54Z
2020-06-22T00:51:12Z,42.805,6.029,13.2977,4.59978,2470.077,2020-6-22T02:51:57Z
2020-06-22T00:54:16Z,42.805,6.029,13.2978,4.59978,2470.063,2020-6-22T02:55:01Z
2020-06-22T00:57:19Z,42.805,6.029,13.2974,4.59978,2470.04,2020-6-22T02:58:04Z
2020-06-22T01:00:22Z,42.805,6.029,13.2977,4.59978,2470.04,2020-6-22T03:01:07Z
2020-06-22T01:03:25Z,42.805,6.029,13.2977,4.59978,2470.04,2020-6-22T03:04:10Z
2020-06-22T01:06:29Z,42.805,6.029,13.2981,4.59980,2470.063,2020-6-22T03:07:13Z
2020-06-22T01:09:32Z,42.805,6.029,13.2979,4.59979,2470.063,2020-6-22T03:10:17Z
2020-06-22T01:12:35Z,42.805,6.029,13.2981,4.59980,2470.063,2020-6-22T03:13:20Z
2020-06-22T01:15:38Z,42.805,6.029,13.2982,4.59980,2470.03,2020-6-22T03:16:23Z
2020-06-22T01:18:42Z,42.805,6.029,13.2978,4.59980,2470.077,2020-6-22T03:19:26Z
2020-06-22T01:21:45Z,42.805,6.029,13.2982,4.59980,2470.063,2020-6-22T03:22:30Z
2020-06-22T01:24:48Z,42.805,6.029,13.2979,4.59980,2470.063,2020-6-22T03:25:33Z
2020-06-22T01:27:51Z,42.805,6.029,13.2980,4.59981,2470.053,2020-6-22T03:28:36Z
2020-06-22T01:30:55Z,42.805,6.029,13.2979,4.59981,2470.017,2020-6-22T03:31:39Z
2020-06-22T01:33:58Z,42.805,6.029,13.2979,4.59979,2470.04,2020-6-22T03:34:43Z
2020-06-22T01:37:01Z,42.805,6.029,13.2981,4.59981,2470.03,2020-6-22T03:37:46Z
2020-06-22T01:40:04Z,42.805,6.029,13.2977,4.59981,2470.04,2020-6-22T03:40:49Z
2020-06-22T01:43:07Z,42.805,6.029,13.2979,4.59981,2470.03,2020-6-22T03:43:52Z
2020-06-22T01:46:11Z,42.805,6.029,13.2981,4.59981,2470.003,2020-6-22T03:46:56Z
2020-06-22T01:49:14Z,42.805,6.029,13.2983,4.59981,2470.04,2020-6-22T03:49:59Z
2020-06-22T01:52:17Z,42.805,6.029,13.2981,4.59981,2470.03,2020-6-22T03:53:02Z
2020-06-22T01:55:21Z,42.805,6.029,13.2982,4.59981,2470.04,2020-6-22T03:56:06Z
2020-06-22T01:58:24Z,42.805,6.029,13.2978,4.59983,2470.03,2020-6-22T03:59:09Z
2020-06-22T02:01:27Z,42.805,6.029,13.2981,4.59982,2470.03,2020-6-22T04:02:12Z
2020-06-22T02:04:30Z,42.805,6.029,13.2982,4.59981,2469.993,2020-6-22T04:05:15Z
2020-06-22T02:07:33Z,42.805,6.029,13.2983,4.59983,2469.993,2020-6-22T04:08:18Z
2020-06-22T02:10:37Z,42.805,6.029,13.2979,4.59981,2470.007,2020-6-22T04:11:22Z
2020-06-22T02:13:40Z,42.805,6.029,13.2980,4.59984,2470.007,2020-6-22T04:14:25Z
2020-06-22T02:16:43Z,42.805,6.029,13.2983,4.59982,2470.04,2020-6-22T04:17:28Z
2020-06-22T02:19:47Z,42.805,6.029,13.2985,4.59982,2470.017,2020-6-22T04:20:32Z
2020-06-22T02:22:50Z,42.805,6.029,13.2981,4.59983,2470.04,2020-6-22T04:23:35Z
2020-06-22T02:25:53Z,42.805,6.029,13.2983,4.59982,2470.017,2020-6-22T04:26:38Z
2020-06-22T02:28:57Z,42.805,6.029,13.2984,4.59982,2470.03,2020-6-22T04:29:42Z
2020-06-22T02:32:00Z,42.805,6.029,13.2981,4.59983,2470.017,2020-6-22T04:32:45Z
2020-06-22T02:35:03Z,42.805,6.029,13.2985,4.59982,2470.007,2020-6-22T04:35:48Z
2020-06-22T02:38:07Z,42.805,6.029,13.2984,4.59983,2470.053,2020-6-22T04:38:51Z
2020-06-22T02:41:10Z,42.805,6.029,13.2983,4.59983,2470.017,2020-6-22T04:41:55Z
2020-06-22T02:44:13Z,42.805,6.029,13.2983,4.59984,2470.026,2020-6-22T04:44:58Z
2020-06-22T02:47:16Z,42.805,6.029,13.2983,4.59984,2470.017,2020-6-22T04:48:01Z
2020-06-22T02:50:20Z,42.805,6.029,13.2983,4.59983,2470.017,2020-6-22T04:51:04Z
2020-06-22T02:53:23Z,42.805,6.029,13.2979,4.59986,2470.04,2020-6-22T04:54:08Z
2020-06-22T02:56:26Z,42.805,6.029,13.2982,4.59984,2469.993,2020-6-22T04:57:11Z
2020-06-22T02:59:29Z,42.805,6.029,13.2982,4.59986,2470.053,2020-6-22T05:00:14Z
2020-06-22T03:02:32Z,42.805,6.029,13.2986,4.59984,2470.03,2020-6-22T05:03:17Z
2020-06-22T03:05:36Z,42.805,6.029,13.2982,4.59984,2470.063,2020-6-22T05:06:21Z
2020-06-22T03:08:39Z,42.805,6.029,13.2983,4.59984,2470.017,2020-6-22T05:09:24Z
2020-06-22T03:11:42Z,42.805,6.029,13.2983,4.59983,2470.03,2020-6-22T05:12:27Z
2020-06-22T03:14:45Z,42.805,6.029,13.2982,4.59983,2470.017,2020-6-22T05:15:30Z
2020-06-22T03:17:49Z,42.805,6.029,13.2983,4.59984,2470.03,2020-6-22T05:18:34Z
2020-06-22T03:20:52Z,42.805,6.029,13.2984,4.59983,2470.017,2020-6-22T05:21:37Z
2020-06-22T03:23:55Z,42.805,6.029,13.2983,4.59983,2470.04,2020-6-22T05:24:40Z
2020-06-22T03:26:59Z,42.805,6.029,13.2982,4.59983,2470.017,2020-6-22T05:27:43Z
2020-06-22T03:30:02Z,42.805,6.029,13.2982,4.59983,2470.017,2020-6-22T05:30:47Z
2020-06-22T03:33:05Z,42.805,6.029,13.2984,4.59984,2470.017,2020-6-22T05:33:50Z
2020-06-22T03:36:08Z,42.805,6.029,13.2986,4.59983,2469.993,2020-6-22T05:36:53Z
2020-06-22T03:39:12Z,42.805,6.029,13.2983,4.59982,2470.03,2020-6-22T05:39:57Z
2020-06-22T03:42:15Z,42.805,6.029,13.2985,4.59983,2470.063,2020-6-22T05:43:00Z
2020-06-22T03:45:18Z,42.805,6.029,13.2984,4.59984,2470.053,2020-6-22T05:46:03Z
2020-06-22T03:48:21Z,42.805,6.029,13.2982,4.59983,2470.04,2020-6-22T05:49:06Z
2020-06-22T03:51:24Z,42.805,6.029,13.2983,4.59983,2470.053,2020-6-22T05:52:09Z
2020-06-22T03:54:28Z,42.805,6.029,13.2979,4.59983,2470.053,2020-6-22T05:55:13Z
2020-06-22T03:57:31Z,42.805,6.029,13.2982,4.59983,2470.077,2020-6-22T05:58:16Z
2020-06-22T04:00:34Z,42.805,6.029,13.2983,4.59983,2470.04,2020-6-22T06:01:19Z
2020-06-22T04:03:37Z,42.805,6.029,13.2983,4.59984,2470.053,2020-6-22T06:04:22Z
2020-06-22T04:06:41Z,42.805,6.029,13.2985,4.59983,2470.017,2020-6-22T06:07:26Z
2020-06-22T04:09:44Z,42.805,6.029,13.2986,4.59983,2470.04,2020-6-22T06:10:29Z
2020-06-22T04:12:47Z,42.805,6.029,13.2982,4.59983,2470.04,2020-6-22T06:13:32Z
2020-06-22T04:15:50Z,42.805,6.029,13.2981,4.59984,2470.053,2020-6-22T06:16:35Z
2020-06-22T04:18:54Z,42.805,6.029,13.2982,4.59983,2470.04,2020-6-22T06:19:39Z
2020-06-22T04:21:57Z,42.805,6.029,13.2980,4.59983,2470.053,2020-6-22T06:22:42Z
2020-06-22T04:25:00Z,42.805,6.029,13.2983,4.59983,2470.077,2020-6-22T06:25:45Z
2020-06-22T04:28:04Z,42.805,6.029,13.2983,4.59984,2470.04,2020-6-22T06:28:49Z
2020-06-22T04:31:07Z,42.805,6.029,13.2981,4.59984,2470.063,2020-6-22T06:31:52Z
2020-06-22T04:34:10Z,42.805,6.029,13.2981,4.59982,2470.063,2020-6-22T06:34:55Z
2020-06-22T04:37:14Z,42.805,6.029,13.2982,4.59983,2470.087,2020-6-22T06:37:58Z
2020-06-22T04:40:17Z,42.805,6.029,13.2980,4.59982,2470.063,2020-6-22T06:41:02Z
2020-06-22T04:43:20Z,42.805,6.029,13.2982,4.59983,2470.1,2020-6-22T06:44:05Z
2020-06-22T04:46:23Z,42.805,6.029,13.2986,4.59983,2470.063,2020-6-22T06:47:08Z
2020-06-22T04:49:27Z,42.805,6.029,13.2983,4.59982,2470.087,2020-6-22T06:50:11Z
2020-06-22T04:52:30Z,42.805,6.029,13.2982,4.59984,2470.063,2020-6-22T06:53:15Z
2020-06-22T04:55:33Z,42.805,6.029,13.2982,4.59983,2470.087,2020-6-22T06:56:18Z
2020-06-22T04:58:36Z,42.805,6.029,13.2982,4.59981,2470.087,2020-6-22T06:59:21Z
2020-06-22T05:01:40Z,42.805,6.029,13.2982,4.59981,2470.04,2020-6-22T07:02:25Z
2020-06-22T05:04:43Z,42.805,6.029,13.2982,4.59981,2470.087,2020-6-22T07:05:28Z
2020-06-22T05:07:47Z,42.805,6.029,13.2979,4.59981,2470.1,2020-6-22T07:08:32Z
2020-06-22T05:10:50Z,42.805,6.029,13.2984,4.59983,2470.124,2020-6-22T07:11:35Z
2020-06-22T05:13:53Z,42.805,6.029,13.2983,4.59981,2470.087,2020-6-22T07:14:38Z
2020-06-22T05:16:56Z,42.805,6.029,13.2982,4.59983,2470.124,2020-6-22T07:17:41Z
2020-06-22T05:20:00Z,42.805,6.029,13.2983,4.59984,2470.049,2020-6-22T07:20:45Z
2020-06-22T05:23:03Z,42.805,6.029,13.2982,4.59981,2470.1,2020-6-22T07:23:48Z
2020-06-22T05:26:06Z,42.805,6.029,13.2980,4.59981,2470.087,2020-6-22T07:26:51Z
2020-06-22T05:29:10Z,42.805,6.029,13.2984,4.59981,2470.11,2020-6-22T07:29:55Z
2020-06-22T05:32:13Z,42.805,6.029,13.2979,4.59981,2470.124,2020-6-22T07:32:58Z
2020-06-22T05:35:16Z,42.805,6.029,13.2981,4.59980,2470.077,2020-6-22T07:36:01Z
2020-06-22T05:38:19Z,42.805,6.029,13.2980,4.59980,2470.087,2020-6-22T07:39:04Z
2020-06-22T05:41:23Z,42.805,6.029,13.2977,4.59981,2470.087,2020-6-22T07:42:08Z
2020-06-22T05:44:26Z,42.805,6.029,13.2979,4.59982,2470.073,2020-6-22T07:45:11Z
2020-06-22T05:47:29Z,42.805,6.029,13.2981,4.59982,2470.087,2020-6-22T07:48:14Z
2020-06-22T05:50:33Z,42.805,6.029,13.2983,4.59984,2470.11,2020-6-22T07:51:18Z
2020-06-22T05:53:36Z,42.805,6.029,13.2980,4.59981,2470.11,2020-6-22T07:54:21Z
2020-06-22T05:56:39Z,42.805,6.029,13.2983,4.59981,2470.147,2020-6-22T07:57:24Z
2020-06-22T05:59:42Z,42.805,6.029,13.2981,4.59981,2470.063,2020-6-22T08:00:27Z
2020-06-22T06:02:46Z,42.805,6.029,13.2979,4.59982,2470.11,2020-6-22T08:03:31Z
2020-06-22T06:05:49Z,42.805,6.029,13.2976,4.59982,2470.11,2020-6-22T08:06:34Z
2020-06-22T06:08:52Z,42.805,6.029,13.2983,4.59981,2470.147,2020-6-22T08:09:37Z
2020-06-22T06:11:55Z,42.805,6.029,13.2979,4.59981,2470.133,2020-6-22T08:12:40Z
2020-06-22T06:14:59Z,42.805,6.029,13.2980,4.59980,2470.147,2020-6-22T08:15:44Z
2020-06-22T06:18:02Z,42.805,6.029,13.2977,4.59980,2470.1,2020-6-22T08:18:47Z
2020-06-22T06:21:05Z,42.805,6.029,13.2983,4.59982,2470.087,2020-6-22T08:21:50Z
2020-06-22T06:24:09Z,42.805,6.029,13.2981,4.59980,2470.147,2020-6-22T08:24:53Z
2020-06-22T06:27:12Z,42.805,6.029,13.2982,4.59981,2470.11,2020-6-22T08:27:57Z
2020-06-22T06:30:15Z,42.805,6.029,13.2980,4.59981,2470.147,2020-6-22T08:31:00Z
2020-06-22T06:33:18Z,42.805,6.029,13.2978,4.59981,2470.147,2020-6-22T08:34:03Z
2020-06-22T06:36:21Z,42.805,6.029,13.2980,4.59981,2470.133,2020-6-22T08:37:06Z
2020-06-22T06:39:25Z,42.805,6.029,13.2977,4.59979,2470.133,2020-6-22T08:40:10Z
2020-06-22T06:42:28Z,42.805,6.029,13.2979,4.59980,2470.133,2020-6-22T08:43:13Z
2020-06-22T06:45:31Z,42.805,6.029,13.2977,4.59980,2470.156,2020-6-22T08:46:16Z
2020-06-22T06:48:35Z,42.805,6.029,13.2978,4.59979,2470.11,2020-6-22T08:49:20Z
2020-06-22T06:51:38Z,42.805,6.029,13.2978,4.59980,2470.11,2020-6-22T08:52:23Z
2020-06-22T06:54:41Z,42.805,6.029,13.2977,4.59980,2470.156,2020-6-22T08:55:26Z
2020-06-22T06:57:44Z,42.805,6.029,13.2978,4.59979,2470.171,2020-6-22T08:58:29Z
2020-06-22T07:00:48Z,42.805,6.029,13.2978,4.59980,2470.124,2020-6-22T09:01:33Z
2020-06-22T07:03:51Z,42.805,6.029,13.2978,4.59978,2470.133,2020-6-22T09:04:36Z
2020-06-22T07:06:54Z,42.805,6.029,13.2981,4.59978,2470.156,2020-6-22T09:07:39Z
2020-06-22T07:09:58Z,42.805,6.029,13.2976,4.59979,2470.147,2020-6-22T09:10:42Z
2020-06-22T07:13:01Z,42.805,6.029,13.2979,4.59978,2470.133,2020-6-22T09:13:46Z
2020-06-22T07:16:04Z,42.805,6.029,13.2978,4.59979,2470.171,2020-6-22T09:16:49Z
2020-06-22T07:19:07Z,42.805,6.029,13.2978,4.59978,2470.147,2020-6-22T09:19:52Z
2020-06-22T07:22:10Z,42.805,6.029,13.2973,4.59978,2470.156,2020-6-22T09:22:55Z
2020-06-22T07:25:14Z,42.805,6.029,13.2980,4.59978,2470.133,2020-6-22T09:25:59Z
2020-06-22T07:28:17Z,42.805,6.029,13.2976,4.59977,2470.171,2020-6-22T09:29:02Z
2020-06-22T07:31:21Z,42.805,6.029,13.2973,4.59979,2470.171,2020-6-22T09:32:05Z
2020-06-22T07:34:24Z,42.805,6.029,13.2979,4.59976,2470.133,2020-6-22T09:35:09Z
2020-06-22T07:37:27Z,42.805,6.029,13.2975,4.59976,2470.156,2020-6-22T09:38:12Z
2020-06-22T07:40:30Z,42.805,6.029,13.2975,4.59974,2470.133,2020-6-22T09:41:15Z
2020-06-22T07:43:33Z,42.805,6.029,13.2974,4.59974,2470.171,2020-6-22T09:44:18Z
2020-06-22T07:46:37Z,42.805,6.029,13.2973,4.59976,2470.11,2020-6-22T09:47:22Z
2020-06-22T07:49:40Z,42.805,6.029,13.2970,4.59973,2470.133,2020-6-22T09:50:25Z
2020-06-22T07:52:43Z,42.805,6.029,13.2971,4.59973,2470.147,2020-6-22T09:53:28Z
2020-06-22T07:55:47Z,42.805,6.029,13.2973,4.59972,2470.147,2020-6-22T09:56:31Z
2020-06-22T07:58:50Z,42.805,6.029,13.2973,4.59972,2470.171,2020-6-22T09:59:35Z
2020-06-22T08:01:53Z,42.805,6.029,13.2970,4.59972,2470.124,2020-6-22T10:02:38Z
2020-06-22T08:04:56Z,42.805,6.029,13.2969,4.59971,2470.147,2020-6-22T10:05:41Z
2020-06-22T08:08:00Z,42.805,6.029,13.2967,4.59973,2470.11,2020-6-22T10:08:45Z
2020-06-22T08:11:03Z,42.805,6.029,13.2969,4.59971,2470.11,2020-6-22T10:11:48Z
2020-06-22T08:14:06Z,42.805,6.029,13.2969,4.59972,2470.133,2020-6-22T10:14:51Z
2020-06-22T08:17:09Z,42.805,6.029,13.2968,4.59972,2470.133,2020-6-22T10:17:54Z
2020-06-22T08:20:13Z,42.805,6.029,13.2970,4.59970,2470.156,2020-6-22T10:20:58Z
2020-06-22T08:23:16Z,42.805,6.029,13.2971,4.59970,2470.156,2020-6-22T10:24:01Z
2020-06-22T08:26:19Z,42.805,6.029,13.2968,4.59971,2470.11,2020-6-22T10:27:04Z
2020-06-22T08:29:22Z,42.805,6.029,13.2969,4.59972,2470.11,2020-6-22T10:30:07Z
2020-06-22T08:32:26Z,42.805,6.029,13.2970,4.59972,2470.11,2020-6-22T10:33:11Z
2020-06-22T08:35:29Z,42.805,6.029,13.2971,4.59971,2470.11,2020-6-22T10:36:14Z
2020-06-22T08:38:32Z,42.805,6.029,13.2970,4.59971,2470.124,2020-6-22T10:39:17Z
2020-06-22T08:41:35Z,42.805,6.029,13.2974,4.59971,2470.11,2020-6-22T10:42:20Z
2020-06-22T08:44:39Z,42.805,6.029,13.2968,4.59970,2470.087,2020-6-22T10:45:24Z
2020-06-22T08:47:42Z,42.805,6.029,13.2967,4.59971,2470.087,2020-6-22T10:48:27Z
2020-06-22T08:50:45Z,42.805,6.029,13.2971,4.59971,2470.133,2020-6-22T10:51:30Z
2020-06-22T08:53:49Z,42.805,6.029,13.2971,4.59970,2470.133,2020-6-22T10:54:34Z
2020-06-22T08:56:52Z,42.805,6.029,13.2968,4.59970,2470.124,2020-6-22T10:57:37Z
2020-06-22T08:59:55Z,42.805,6.029,13.2970,4.59970,2470.133,2020-6-22T11:00:40Z
2020-06-22T09:02:58Z,42.805,6.029,13.2972,4.59971,2470.11,2020-6-22T11:03:43Z
2020-06-22T09:06:02Z,42.805,6.029,13.2969,4.59970,2470.147,2020-6-22T11:06:46Z
2020-06-22T09:09:05Z,42.805,6.029,13.2968,4.59970,2470.124,2020-6-22T11:09:50Z
2020-06-22T09:12:08Z,42.805,6.029,13.2969,4.59970,2470.087,2020-6-22T11:12:53Z
2020-06-22T09:15:11Z,42.805,6.029,13.2968,4.59970,2470.087,2020-6-22T11:15:56Z
2020-06-22T09:18:15Z,42.805,6.029,13.2968,4.59969,2470.133,2020-6-22T11:19:00Z
2020-06-22T09:21:18Z,42.805,6.029,13.2966,4.59970,2470.124,2020-6-22T11:22:03Z
2020-06-22T09:24:21Z,42.805,6.029,13.2972,4.59970,2470.124,2020-6-22T11:25:06Z
2020-06-22T09:27:24Z,42.805,6.029,13.2968,4.59970,2470.11,2020-6-22T11:28:09Z
2020-06-22T09:30:28Z,42.805,6.029,13.2969,4.59970,2470.087,2020-6-22T11:31:13Z
2020-06-22T09:33:31Z,42.805,6.029,13.2968,4.59969,2470.096,2020-6-22T11:34:16Z
2020-06-22T09:36:34Z,42.805,6.029,13.2971,4.59969,2470.11,2020-6-22T11:37:19Z
2020-06-22T09:39:37Z,42.805,6.029,13.2967,4.59970,2470.087,2020-6-22T11:40:22Z
2020-06-22T09:42:41Z,42.805,6.029,13.2967,4.59969,2470.11,2020-6-22T11:43:26Z
2020-06-22T09:45:44Z,42.805,6.029,13.2967,4.59970,2470.11,2020-6-22T11:46:29Z
2020-06-22T09:48:47Z,42.805,6.029,13.2970,4.59970,2470.063,2020-6-22T11:49:32Z
2020-06-22T09:51:50Z,42.805,6.029,13.2972,4.59969,2470.063,2020-6-22T11:52:35Z
2020-06-22T09:54:54Z,42.805,6.029,13.2967,4.59969,2470.11,2020-6-22T11:55:39Z
2020-06-22T09:57:57Z,42.805,6.029,13.2969,4.59971,2470.087,2020-6-22T11:58:42Z
2020-06-22T10:01:00Z,42.805,6.029,13.2968,4.59970,2470.11,2020-6-22T12:01:45Z
2020-06-22T10:04:03Z,42.805,6.029,13.2965,4.59970,2470.063,2020-6-22T12:04:48Z
2020-06-22T10:07:07Z,42.805,6.029,13.2970,4.59969,2470.063,2020-6-22T12:07:52Z
2020-06-22T10:10:10Z,42.805,6.029,13.2968,4.59970,2470.087,2020-6-22T12:10:55Z
2020-06-22T10:13:13Z,42.805,6.029,13.2966,4.59971,2470.063,2020-6-22T12:13:58Z
2020-06-22T10:16:16Z,42.805,6.029,13.2967,4.59969,2470.063,2020-6-22T12:17:01Z
2020-06-22T10:19:20Z,42.805,6.029,13.2968,4.59969,2470.063,2020-6-22T12:20:05Z
2020-06-22T10:22:23Z,42.805,6.029,13.2973,4.59971,2470.063,2020-6-22T12:23:08Z
2020-06-22T10:25:26Z,42.805,6.029,13.2968,4.59970,2470.063,2020-6-22T12:26:11Z
2020-06-22T10:28:30Z,42.805,6.029,13.2969,4.59969,2470.1,2020-6-22T12:29:15Z
2020-06-22T10:31:33Z,42.805,6.029,13.2967,4.59970,2470.063,2020-6-22T12:32:18Z
2020-06-22T10:34:36Z,42.805,6.029,13.2971,4.59969,2470.077,2020-6-22T12:35:21Z
2020-06-22T10:37:39Z,42.805,6.029,13.2969,4.59971,2470.026,2020-6-22T12:38:24Z
2020-06-22T10:40:43Z,42.805,6.029,13.2968,4.59971,2470.063,2020-6-22T12:41:27Z
2020-06-22T10:43:46Z,42.805,6.029,13.2967,4.59969,2470.03,2020-6-22T12:44:31Z
2020-06-22T10:46:49Z,42.805,6.029,13.2969,4.59969,2470.053,2020-6-22T12:47:34Z
2020-06-22T10:49:52Z,42.805,6.029,13.2967,4.59968,2470.017,2020-6-22T12:50:37Z
2020-06-22T10:52:55Z,42.805,6.029,13.2969,4.59969,2470.04,2020-6-22T12:53:40Z
2020-06-22T10:55:59Z,42.805,6.029,13.2973,4.59971,2470.04,2020-6-22T12:56:44Z
2020-06-22T10:59:02Z,42.805,6.029,13.2964,4.59970,2470.03,2020-6-22T12:59:47Z
2020-06-22T11:02:05Z,42.805,6.029,13.2968,4.59970,2470.04,2020-6-22T13:02:50Z
2020-06-22T11:05:08Z,42.805,6.029,13.2970,4.59971,2470.04,2020-6-22T13:05:53Z
2020-06-22T11:08:12Z,42.805,6.029,13.2969,4.59971,2469.993,2020-6-22T13:08:57Z
2020-06-22T11:11:15Z,42.805,6.029,13.2969,4.59968,2470.026,2020-6-22T13:12:00Z
2020-06-22T11:14:18Z,42.805,6.029,13.2969,4.59971,2470.017,2020-6-22T13:15:03Z
2020-06-22T11:17:22Z,42.805,6.029,13.2968,4.59968,2470.017,2020-6-22T13:18:06Z
2020-06-22T11:20:25Z,42.805,6.029,13.2969,4.59970,2470.053,2020-6-22T13:21:10Z
2020-06-22T11:23:28Z,42.805,6.029,13.2971,4.59969,2470.03,2020-6-22T13:24:13Z
2020-06-22T11:26:31Z,42.805,6.029,13.2969,4.59970,2470.03,2020-6-22T13:27:16Z
2020-06-22T11:29:35Z,42.805,6.029,13.2971,4.59969,2470.03,2020-6-22T13:30:19Z
2020-06-22T11:32:38Z,42.805,6.029,13.2968,4.59972,2470.053,2020-6-22T13:33:23Z
2020-06-22T11:35:41Z,42.805,6.029,13.2968,4.59969,2470.03,2020-6-22T13:36:26Z
2020-06-22T11:38:44Z,42.805,6.029,13.2969,4.59971,2470.03,2020-6-22T13:39:29Z
2020-06-22T11:41:48Z,42.805,6.029,13.2971,4.59970,2469.993,2020-6-22T13:42:32Z
2020-06-22T11:44:51Z,42.805,6.029,13.2971,4.59971,2470.017,2020-6-22T13:45:36Z
2020-06-22T11:47:54Z,42.805,6.029,13.2968,4.59970,2469.993,2020-6-22T13:48:39Z
2020-06-22T11:50:57Z,42.805,6.029,13.2967,4.59970,2470.017,2020-6-22T13:51:42Z
2020-06-22T11:54:00Z,42.805,6.029,13.2973,4.59971,2470.053,2020-6-22T13:54:45Z
2020-06-22T11:57:04Z,42.805,6.029,13.2967,4.59969,2470.017,2020-6-22T13:57:49Z
2020-06-22T12:00:07Z,42.805,6.029,13.2969,4.59969,2469.993,2020-6-22T14:00:52Z
2020-06-22T12:03:10Z,42.805,6.029,13.2969,4.59971,2469.97,2020-6-22T14:03:55Z
2020-06-22T12:06:14Z,42.805,6.029,13.2972,4.59971,2470.017,2020-6-22T14:06:58Z
2020-06-22T12:09:17Z,42.805,6.029,13.2969,4.59969,2469.984,2020-6-22T14:10:02Z
2020-06-22T12:12:20Z,42.805,6.029,13.2971,4.59972,2469.97,2020-6-22T14:13:05Z
2020-06-22T12:15:23Z,42.805,6.029,13.2968,4.59969,2469.993,2020-6-22T14:16:08Z
2020-06-22T12:18:26Z,42.805,6.029,13.2973,4.59970,2469.984,2020-6-22T14:19:11Z
2020-06-22T12:21:30Z,42.805,6.029,13.2970,4.59971,2470.007,2020-6-22T14:22:15Z
2020-06-22T12:24:33Z,42.805,6.029,13.2969,4.59970,2469.993,2020-6-22T14:25:18Z
2020-06-22T12:27:36Z,42.805,6.029,13.2968,4.59971,2470.03,2020-6-22T14:28:21Z
2020-06-22T12:30:39Z,42.805,6.029,13.2969,4.59970,2470.017,2020-6-22T14:31:24Z
2020-06-22T12:33:43Z,42.805,6.029,13.2968,4.59968,2469.993,2020-6-22T14:34:28Z
2020-06-22T12:36:46Z,42.805,6.029,13.2967,4.59971,2470.007,2020-6-22T14:37:31Z
2020-06-22T12:39:49Z,42.805,6.029,13.2971,4.59969,2470.03,2020-6-22T14:40:34Z
2020-06-22T12:42:52Z,42.805,6.029,13.2970,4.59970,2469.947,2020-6-22T14:43:37Z
2020-06-22T12:45:56Z,42.805,6.029,13.2969,4.59971,2469.993,2020-6-22T14:46:41Z
2020-06-22T12:48:59Z,42.805,6.029,13.2967,4.59973,2469.97,2020-6-22T14:49:44Z
2020-06-22T12:52:02Z,42.805,6.029,13.2967,4.59972,2470.007,2020-6-22T14:52:47Z
2020-06-22T12:55:05Z,42.805,6.029,13.2971,4.59970,2469.97,2020-6-22T14:55:50Z
2020-06-22T12:58:09Z,42.805,6.029,13.2968,4.59969,2469.923,2020-6-22T14:58:54Z
2020-06-22T13:01:12Z,42.805,6.029,13.2972,4.59971,2469.97,2020-6-22T15:01:57Z
2020-06-22T13:04:15Z,42.805,6.029,13.2970,4.59971,2469.947,2020-6-22T15:05:00Z
2020-06-22T13:07:18Z,42.805,6.029,13.2967,4.59969,2469.97,2020-6-22T15:08:03Z
2020-06-22T13:10:22Z,42.805,6.029,13.2970,4.59970,2469.993,2020-6-22T15:11:07Z
2020-06-22T13:13:25Z,42.805,6.029,13.2968,4.59969,2469.96,2020-6-22T15:14:10Z
2020-06-22T13:16:28Z,42.805,6.029,13.2973,4.59970,2469.956,2020-6-22T15:17:13Z
2020-06-22T13:19:31Z,42.805,6.029,13.2970,4.59971,2469.947,2020-6-22T15:20:16Z
2020-06-22T13:22:35Z,42.805,6.029,13.2968,4.59971,2470.007,2020-6-22T15:23:20Z
2020-06-22T13:25:38Z,42.805,6.029,13.2967,4.59971,2469.956,2020-6-22T15:26:23Z
2020-06-22T13:28:41Z,42.805,6.029,13.2971,4.59973,2469.947,2020-6-22T15:29:26Z
2020-06-22T13:31:44Z,42.805,6.029,13.2971,4.59972,2469.97,2020-6-22T15:32:29Z
2020-06-22T13:34:47Z,42.805,6.029,13.2971,4.59971,2469.97,2020-6-22T15:35:32Z
2020-06-22T13:37:51Z,42.805,6.029,13.2969,4.59971,2469.97,2020-6-22T15:38:36Z
2020-06-22T13:40:54Z,42.805,6.029,13.2970,4.59971,2469.947,2020-6-22T15:41:39Z
2020-06-22T13:43:58Z,42.805,6.029,13.2974,4.59971,2469.984,2020-6-22T15:44:42Z
2020-06-22T13:47:01Z,42.805,6.029,13.2973,4.59972,2469.993,2020-6-22T15:47:46Z
2020-06-22T13:50:04Z,42.805,6.029,13.2974,4.59971,2469.947,2020-6-22T15:50:49Z
2020-06-22T13:53:07Z,42.805,6.029,13.2971,4.59972,2469.97,2020-6-22T15:53:52Z
2020-06-22T13:56:11Z,42.805,6.029,13.2974,4.59972,2469.96,2020-6-22T15:56:56Z
2020-06-22T13:59:14Z,42.805,6.029,13.2971,4.59973,2469.984,2020-6-22T15:59:59Z
2020-06-22T14:02:17Z,42.805,6.029,13.2971,4.59972,2469.97,2020-6-22T16:03:02Z
2020-06-22T14:05:20Z,42.805,6.029,13.2969,4.59973,2469.97,2020-6-22T16:06:05Z
2020-06-22T14:08:24Z,42.805,6.029,13.2971,4.59973,2469.937,2020-6-22T16:09:09Z
2020-06-22T14:11:27Z,42.805,6.029,13.2974,4.59972,2469.97,2020-6-22T16:12:12Z
2020-06-22T14:14:30Z,42.805,6.029,13.2976,4.59971,2469.947,2020-6-22T16:15:15Z
2020-06-22T14:17:33Z,42.805,6.029,13.2972,4.59972,2469.97,2020-6-22T16:18:18Z
2020-06-22T14:20:37Z,42.805,6.029,13.2970,4.59976,2469.947,2020-6-22T16:21:22Z
2020-06-22T14:23:40Z,42.805,6.029,13.2972,4.59972,2469.947,2020-6-22T16:24:25Z
2020-06-22T14:26:43Z,42.805,6.029,13.2971,4.59971,2469.947,2020-6-22T16:27:28Z
2020-06-22T14:29:47Z,42.805,6.029,13.2971,4.59971,2469.984,2020-6-22T16:30:32Z
2020-06-22T14:32:50Z,42.805,6.029,13.2968,4.59971,2469.947,2020-6-22T16:33:35Z
2020-06-22T14:35:53Z,42.805,6.029,13.2967,4.59972,2469.97,2020-6-22T16:36:38Z
2020-06-22T14:38:56Z,42.805,6.029,13.2974,4.59972,2469.97,2020-6-22T16:39:41Z
2020-06-22T14:42:00Z,42.805,6.029,13.2970,4.59971,2469.947,2020-6-22T16:42:45Z
2020-06-22T14:45:03Z,42.805,6.029,13.2968,4.59971,2469.97,2020-6-22T16:45:48Z
2020-06-22T14:48:06Z,42.805,6.029,13.2973,4.59972,2469.97,2020-6-22T16:48:51Z
2020-06-22T14:51:10Z,42.805,6.029,13.2968,4.59970,2469.956,2020-6-22T16:51:55Z
2020-06-22T14:54:13Z,42.805,6.029,13.2971,4.59971,2469.97,2020-6-22T16:54:58Z
2020-06-22T14:57:16Z,42.805,6.029,13.2968,4.59971,2469.947,2020-6-22T16:58:01Z
2020-06-22T15:00:19Z,42.805,6.029,13.2970,4.59971,2469.993,2020-6-22T17:01:04Z
2020-06-22T15:03:23Z,42.805,6.029,13.2972,4.59971,2469.97,2020-6-22T17:04:08Z
2020-06-22T15:06:26Z,42.805,6.029,13.2968,4.59971,2469.97,2020-6-22T17:07:11Z
2020-06-22T15:09:29Z,42.805,6.029,13.2967,4.59970,2469.97,2020-6-22T17:10:14Z
2020-06-22T15:12:32Z,42.805,6.029,13.2967,4.59970,2469.97,2020-6-22T17:13:17Z
2020-06-22T15:15:36Z,42.805,6.029,13.2971,4.59970,2469.947,2020-6-22T17:16:21Z